Regional Weather Roundup
Issued by NWS

Home | Current Version | Previous Version | Graphics & Text | Print | Product List | Glossary Off
Versions: 1 2 3 4 5 6 7 8 9 10 11 12 13 14 15 16 17 18 19 20 21 22 23 24 25 26 27 28 29 30 31 32 33 34 35 36 37 38 39 40 41 42 43 44 45 46 47 48 49 50

000
ASUS43 KLSX 282259
RWRMO

WEATHER SUMMARY FOR MISSOURI
NATIONAL WEATHER SERVICE SPRINGFIELD MO
600 PM CDT MON JUL 28 2014

NOTE: "FAIR" INDICATES FEW OR NO CLOUDS BELOW 12,000 FEET WITH NO
       SIGNIFICANT WEATHER AND/OR OBSTRUCTIONS TO VISIBILITY.
       CURRENT SKY AND/OR WEATHER CONDITIONS ARE NOT AVAILABLE FOR
       CHILLICOTHE AND FARMINGTON.

MOZ001>031-035>038-043-044-053-054-290000-
...NORTHERN AND WESTERN MISSOURI...

CITY           SKY/WX    TMP DP  RH WIND       PRES   REMARKS
KANSAS CTY INT PTSUNNY   76  60  57 N10       30.17F
KANSAS C DTWN  MOSUNNY   81  59  47 N10       30.15F
LEE`S SUMMIT   MOSUNNY   80  56  43 N12       30.17F
ST JOSEPH      MOSUNNY   77  61  57 N9        30.17F
CHILLICOTHE      N/A     78  55  44 N7        30.16F
KIRKSVILLE     SUNNY     75  54  47 N10       30.17F

$$
MOZ066>068-077>081-088>096-101>105-290000-
...SOUTHWEST MISSOURI...

CITY           SKY/WX    TMP DP  RH WIND       PRES   REMARKS
SPRINGFIELD    MOSUNNY   81  56  42 N14       30.13F
JOPLIN         SUNNY     84  55  36 N9        30.13F

$$
MOZ032>034-039>042-045>050-055>058-069>072-290000-
...CENTRAL MISSOURI...

CITY           SKY/WX    TMP DP  RH WIND       PRES   REMARKS
COLUMBIA       MOSUNNY   76  56  49 N15       30.14S
JEFFERSON CITY MOSUNNY   77  57  50 N9        30.11F
ROLLA          CLOUDY    76  56  49 N13G21    30.11S
SEDALIA        PTSUNNY   77  59  53 N12       30.15F
OSAGE BEACH    MOSUNNY   81  55  41 N9G16     30.12S

$$
MOZ051-052-059>065-290000-
...EAST CENTRAL MISSOURI...

CITY           SKY/WX    TMP DP  RH WIND       PRES   REMARKS
ST LOUIS INTL  PTSUNNY   75  56  51 N14G20    30.11R
SPIRIT OF STL  PTSUNNY   76  55  48 N15       30.10S
ST CHARLES     PTSUNNY   73  56  54 NW9       30.11R

$$
MOZ072>076-082>087-097>100-106>115-290000-
...SOUTH CENTRAL AND SOUTHEAST MISSOURI...

CITY           SKY/WX    TMP DP  RH WIND       PRES   REMARKS
CAPE GIRARDEAU MOSUNNY   79  61  53 N10       30.04S
FARMINGTON     PTSUNNY   75  57  53 N12G20    30.10S
POPLAR BLUFF   MOSUNNY   84  59  42 NW8       30.02S
WEST PLAINS    MOSUNNY   83  56  39 N8G17     30.10F

$$



USA.gov is the U.S. government's official web portal to all federal, state and local government web resources and services.